Other Public Products
Issued by NWS Charleston, SC

Home | Current Version | Previous Version | Text Only | Print | Product List | Glossary On
Versions: 1 2 3 4 5 6 7 8 9 10 11 12 13 14 15 16 17 18 19 20 21 22 23 24 25 26 27 28 29 30 31 32 33 34 35 36 37 38 39 40 41 42 43 44 45 46 47 48 49 50
357
FPUS82 KCHS 211527
OPUCHS

TEST...KCHS/KSAV Gateway Observations...TEST
National Weather Service Charleston SC
1000 AM EST SAT JAN 21 2017

NOTE: "fair" indicates few or no clouds below 12,000 feet with no
significant weather and/or obstructions to visibility.

SCZ050-WAZ558-NCZ071-TXZ119-213-PAZ071-DCZ001-FLZ074-172-MI076-
NYZ176-178-MAZ016-IL014-TNZ027-NJZ106-GAZ044-MD014-211600-
...Gateway Observations for Charleston International...

CITY           SKY/WX    TMP DP  RH WIND       PRES   REMARKS
Chas Airport   CLOUDY    66  64  93 SW3       29.91R FOG
Seattle        CLOUDY    41  37  86 W5        29.29R
Charlotte      FOG       54  53  97 VRB6      29.89S VSB 1/2
Dallas DFW     CLOUDY    54  52  93 S6        29.57F
Dallas Love    CLOUDY    57  54  89 S6        29.59F
Philladelphia  CLOUDY    44  43  96 SW8       29.92S FOG
Wash National  CLOUDY    48  48 100 S8        29.93R
Baltimore      FOG       46  46 100 SW7       29.92R VSB 3/4
Miami          MOSUNNY   77  67  71 S8        29.99S
Detroit        FOG       43  43 100 CALM      29.70R VSB 1/8
Newark         CLOUDY    44  42  93 SW8       29.90R
Laguardia      CLOUDY    48  42  80 SW8       29.89R
J F K          CLOUDY    45  45 100 SW10      29.91R
Boston Logan   CLOUDY    43  39  86 SW6       29.84S
Ft. Lauderdale MOSUNNY   77  67  71 S6        29.98S
Chicago O`Hare PTSUNNY   49  47  93 S8        29.51F FOG
Chicago Midway MOSUNNY   49  46  90 S8        29.53S
Houston Bush   CLOUDY    66  65  96 SE6       29.63F FOG
Houston Hobby  CLOUDY    68  65  90 S3        29.63F FOG
Nashville      CLOUDY    61  57  87 S9        29.74F
Atlanta        HVY RAIN  60  58  92 NE12      29.77F FOG

$$

GAZ044-118-TXZ119-213-NCZ071-DCZ001-MDZ014-506-PAZ021-071-NJZ106-
NYZ176-178-MAZ106-OHZ011-021-055-MIZ076-KYZ091-ILZ014-INZ047-
MNZ060-211600-
...Gateway Observations for Savannah International...

CITY           SKY/WX    TMP DP  RH WIND       PRES   REMARKS
Savannah Arpt  CLOUDY    68  65  90 S10       29.90R
Atlanta        HVY RAIN  60  58  92 NE12      29.77F FOG
Charlotte      FOG       54  53  97 VRB6      29.89S VSB 1/2
Dallas DFW     CLOUDY    54  52  93 S6        29.57F
Houston Bush   CLOUDY    66  65  96 SE6       29.63F FOG
Wash National  CLOUDY    48  48 100 S8        29.93R
Wash Dulles    FOG       47  46  97 SW5       29.91R VSB 1/8
Baltimore      FOG       46  46 100 SW7       29.92R VSB 3/4
Philadelphia   CLOUDY    44  43  96 SW8       29.92S FOG
Newark         CLOUDY    44  42  93 SW8       29.90R
Laguardia      CLOUDY    48  42  80 SW8       29.89R
J F K          CLOUDY    45  45 100 SW10      29.91R
Boston         CLOUDY    43  39  86 SW6       29.84S
Pittsburg      MOSUNNY   50  49  96 SE6       29.78S
Akron          MOSUNNY   52  48  86 S10       29.75S
Cleveland      MOSUNNY   57  49  74 S7        29.75R
Cincinnati     CLOUDY    54  51  90 S9        29.71S
Columbus         N/A     54  51  88 S8        29.74R
Detroit        FOG       43  43 100 CALM      29.70R VSB 1/8
Chicago O`Hare PTSUNNY   49  47  93 S8        29.51F FOG
Minneapolis    DRIZZLE   35  33  92 NE5       29.42S FOG     WCI  31
Indianapolis   PTSUNNY   51  50  96 S7        29.64F

$$




USA.gov is the U.S. government's official web portal to all federal, state and local government web resources and services.